DateTimeUTC,F1_A11,F1_S11,BsB_S11,BsG_S11,BsR_S11,BbsB_S11,BbsG_S11,BbsR_S11,BaB_A11,BaG_A11,BaR_A11,Tu_S11,T_S11,Uu_S11,U_S11,P_S11,T1_A11
2021-04-25T09:00:00Z,00000200,21000000,,,,,,,0000.71,0000.54,0000.76,16.7,23.9,00.6,00.4,0679.2,31.0
2021-04-25T09:01:00Z,00000200,21000000,,,,,,,0000.59,0000.83,0000.20,16.7,23.9,00.6,00.4,0679.2,31.0
2021-04-25T09:02:00Z,00000200,21000000,,,,,,,-000.08,-000.10,0000.53,16.7,23.9,00.6,00.4,0679.2,31.0
2021-04-25T09:03:00Z,00000200,61000000,,,,,,,0000.25,0000.35,-000.36,16.7,23.9,00.9,00.6,0679.2,31.0
2021-04-25T09:04:00Z,00000200,41000000,0000.23,0000.19,0000.01,0000.25,-000.17,0000.07,-001.10,-000.73,-000.50,17.0,23.8,01.3,00.8,0680.1,31.0
2021-04-25T09:05:00Z,00000200,01000000,-000.44,0000.09,0000.06,-000.20,-000.10,0000.18,-000.04,-000.63,-000.07,17.0,23.7,01.0,00.6,0680.2,31.0
2021-04-25T09:06:00Z,00000200,01000000,0000.24,0000.07,0000.03,0000.09,-000.10,0000.12,-000.62,-000.18,-000.42,17.0,23.7,00.9,00.6,0680.2,31.0
2021-04-25T09:07:00Z,00000200,01000000,0000.37,0000.11,0000.09,0000.93,0000.03,0000.01,-000.10,-000.32,-000.23,17.0,23.7,00.6,00.4,0680.2,31.0
2021-04-25T09:08:00Z,00000200,01000000,0000.08,-000.07,0000.06,0000.43,-000.01,0000.35,-000.74,-000.32,-000.35,17.0,23.7,00.6,00.4,0680.2,31.0
2021-04-25T09:09:00Z,00000200,01000000,0000.09,0000.26,0000.28,0000.51,-000.05,0000.08,-000.05,-000.32,-000.15,16.9,23.7,00.4,00.3,0680.3,31.0
2021-04-25T09:10:00Z,00000200,01000000,0000.07,0000.01,0000.01,0000.20,-000.03,-000.04,-000.42,-000.44,-000.26,16.9,23.7,00.4,00.2,0680.4,31.0
2021-04-25T09:11:00Z,00000200,01000000,-000.09,0000.24,0000.10,0000.48,-000.18,0000.10,-000.58,-000.41,-000.53,16.9,23.7,00.2,00.1,0680.4,31.0
2021-04-25T09:12:00Z,00000200,01000000,-000.10,0000.05,0000.06,-000.03,-000.23,0000.25,-000.12,-000.48,-000.13,16.9,23.7,00.1,00.1,0680.4,31.0
2021-04-25T09:13:00Z,00000200,01000000,0000.14,0000.16,0000.19,-000.32,0000.05,0000.20,-000.41,-000.13,-000.37,16.9,23.6,00.1,00.1,0680.4,31.0
2021-04-25T09:14:00Z,00000200,01000000,-000.27,-000.09,0000.19,0000.08,-000.01,0000.29,-000.29,0000.02,0000.11,16.9,23.6,00.1,00.0,0680.5,31.0
2021-04-25T09:15:00Z,00000200,01000000,0000.04,0000.31,0000.09,0000.31,-000.05,-000.14,-000.15,-000.26,-000.14,16.9,23.6,00.0,00.0,0680.5,31.0
2021-04-25T09:16:00Z,00000200,01000000,0000.27,0000.06,0000.18,0000.08,-000.36,0000.03,0000.03,-000.08,-000.17,16.9,23.7,00.0,00.0,0680.5,31.0
2021-04-25T09:17:00Z,00000200,01000000,-000.33,-000.16,-000.02,0000.39,0000.20,-000.07,-000.05,0000.32,0000.00,17.0,23.7,00.0,00.0,0680.5,31.0
2021-04-25T09:18:00Z,00000200,01000000,-000.03,0000.07,0000.14,0000.53,-000.20,0000.03,-000.02,-000.14,0000.03,17.0,23.7,00.0,00.0,0680.5,31.0
2021-04-25T09:19:00Z,00000200,01000000,0000.32,0000.33,0000.04,0000.09,-000.04,-000.07,0000.24,0000.27,0000.00,17.0,23.7,00.0,00.0,0680.5,31.0
2021-04-25T09:20:00Z,00000200,01000000,0000.03,0000.11,0000.23,-000.09,-000.05,0000.14,0000.54,0000.07,0000.45,17.0,23.7,00.0,00.0,0680.5,31.0
2021-04-25T09:21:00Z,00000200,01000000,-000.35,0000.45,0000.03,0000.31,0000.03,-000.15,-000.16,-000.03,0000.05,17.0,23.6,00.1,00.0,0680.5,31.0
2021-04-25T09:22:00Z,00000200,01000000,0000.36,-000.34,0000.05,0000.29,-000.12,0000.12,-000.25,-000.42,-000.07,17.0,23.7,00.1,00.1,0680.5,31.0
2021-04-25T09:23:00Z,00000200,01000000,0000.24,0000.20,0000.33,0000.12,-000.11,0000.13,0000.04,0000.28,-000.31,16.9,23.7,00.0,00.0,0680.5,31.0
2021-04-25T09:24:00Z,00000200,01000000,0000.43,-000.01,0000.09,-000.03,0000.05,-000.11,0001.30,0001.17,0000.95,16.9,23.6,00.1,00.1,0680.6,31.0
2021-04-25T09:25:00Z,00000200,01000000,-000.36,-000.11,-000.06,0000.07,-000.03,0000.16,-001.51,-001.52,-001.07,16.9,23.6,00.1,00.1,0680.6,31.0
2021-04-25T09:26:00Z,00000200,01000000,-000.06,0000.24,-000.02,-000.02,0000.03,-000.04,-000.47,-000.30,-000.24,16.9,23.6,00.0,00.0,0680.7,31.0
2021-04-25T09:27:00Z,00000200,01000000,-000.07,-000.06,0000.08,0000.05,0000.04,0000.16,-000.30,-000.20,-000.15,16.9,23.6,00.0,00.0,0680.7,31.0
2021-04-25T09:28:00Z,00000200,01000000,0000.08,0000.04,0000.21,-000.35,-000.02,0000.16,0000.70,0000.10,0000.31,16.8,23.6,00.0,00.0,0680.7,31.0
2021-04-25T09:29:00Z,00000200,01000000,-000.01,0000.24,0000.14,-000.63,-000.02,0000.14,0000.01,0000.14,0000.13,16.8,23.6,00.0,00.0,0680.7,31.0
2021-04-25T09:30:00Z,00000200,01000000,0001.19,0000.21,-000.02,0000.47,-000.01,0000.05,-000.14,0000.14,-000.12,16.9,23.6,00.0,00.0,0680.7,31.0
2021-04-25T09:31:00Z,00000200,01000000,0000.11,-000.01,-000.03,0000.01,-000.19,-000.42,-000.08,0000.15,-000.06,16.9,23.6,00.0,00.0,0680.7,31.0
2021-04-25T09:32:00Z,00000200,01000000,-000.11,0000.02,0000.14,0000.35,0000.04,0000.24,0000.25,0000.06,0000.15,17.0,23.7,00.0,00.0,0680.6,31.0
2021-04-25T09:33:00Z,00000200,01000000,0000.37,0000.21,0000.39,0000.14,0000.15,0000.27,-000.14,-000.38,-000.04,17.0,23.7,00.0,00.0,0680.6,31.0
2021-04-25T09:34:00Z,00000200,01000000,-000.27,0000.11,0000.33,0000.08,-000.00,0000.01,-000.10,0000.40,-000.08,17.0,23.7,00.0,00.0,0680.6,31.0
2021-04-25T09:35:00Z,00000200,01000000,0000.55,-000.16,-000.14,0000.14,-000.05,-000.20,0000.13,0000.03,0000.25,17.0,23.7,00.0,00.0,0680.6,31.0
2021-04-25T09:36:00Z,00000200,01000000,0000.16,0000.27,-000.18,0000.26,0000.11,0000.04,0000.67,0000.29,0000.06,17.0,23.7,00.1,00.0,0680.6,31.0
2021-04-25T09:37:00Z,00000200,01000000,-000.32,-000.09,0000.21,-000.14,-000.31,0000.25,-000.37,-000.19,0000.15,17.0,23.7,00.1,00.1,0680.6,31.0
2021-04-25T09:38:00Z,00000200,01000000,-000.02,0000.38,0000.19,0000.25,-000.21,-000.04,0000.33,0000.03,-000.14,17.0,23.7,00.1,00.0,0680.6,31.0
2021-04-25T09:39:00Z,00000200,01000000,-000.00,-000.04,0000.14,0000.50,0000.03,-000.03,-000.34,0000.13,0000.04,16.9,23.7,00.1,00.0,0680.6,31.0
2021-04-25T09:40:00Z,00000200,01000000,0000.38,0000.18,0000.00,0000.34,-000.03,0000.00,0000.24,-000.21,-000.10,16.9,23.6,00.0,00.0,0680.7,31.0
2021-04-25T09:41:00Z,00000200,01000000,0000.18,0000.19,0000.17,-000.06,-000.19,0000.17,-000.06,0000.24,0000.17,16.9,23.6,00.1,00.0,0680.7,31.0
2021-04-25T09:42:00Z,00000200,01000000,0000.54,0000.22,0000.22,0000.60,-000.36,0000.06,0000.15,0000.31,0000.23,16.9,23.6,00.1,00.0,0680.6,31.0
2021-04-25T09:43:00Z,00000200,01000000,0000.06,0000.10,0000.40,-000.04,-000.04,0000.35,0000.17,0000.12,0000.03,16.9,23.6,00.1,00.0,0680.6,31.0
2021-04-25T09:44:00Z,00000200,01000000,0000.27,0000.13,-000.17,0000.14,-000.12,-000.13,0000.35,-000.08,0000.23,16.9,23.6,00.1,00.1,0680.6,31.0
2021-04-25T09:45:00Z,00000200,01000000,-000.16,0000.02,-000.06,0000.08,-000.19,0000.16,0000.68,0000.77,0000.65,16.9,23.6,00.2,00.2,0680.6,31.0
2021-04-25T09:46:00Z,00000200,01000000,0000.33,0000.47,-000.14,0000.42,-000.04,-000.25,0000.44,0000.59,0000.29,17.0,23.6,00.3,00.2,0680.6,31.0
2021-04-25T09:47:00Z,00000200,01000000,0000.73,0000.32,-000.04,-000.17,0000.14,0000.34,0000.10,0000.21,0000.22,17.0,23.7,00.3,00.2,0680.6,31.0
2021-04-25T09:48:00Z,00000200,01000000,0000.52,0000.20,0000.14,0000.25,-000.18,0000.04,0000.24,0000.19,0000.16,17.1,23.7,00.4,00.3,0680.6,31.0
2021-04-25T09:49:00Z,00000200,01000000,0000.29,0000.02,-000.01,-000.17,0000.11,0000.08,0000.27,-000.15,-000.06,17.1,23.7,00.4,00.3,0680.5,31.0
2021-04-25T09:50:00Z,00000200,01000000,-000.09,0000.13,-000.12,0000.18,0000.07,0000.10,-000.14,0000.17,0000.15,17.1,23.7,00.5,00.3,0680.5,31.0
2021-04-25T09:51:00Z,00000200,01000000,0000.27,0000.09,0000.11,0000.18,0000.19,0000.10,-000.13,0000.02,-000.09,17.1,23.7,00.3,00.2,0680.6,31.0
2021-04-25T09:52:00Z,00000200,01000000,0000.48,0000.17,0000.15,0000.02,0000.02,-000.10,0000.13,0000.02,0000.01,17.1,23.7,00.5,00.3,0680.6,31.0
2021-04-25T09:53:00Z,00000200,01000000,0000.16,0000.09,0000.23,-000.11,-000.04,-000.08,-000.02,-000.04,0000.15,17.1,23.7,00.5,00.3,0680.6,31.0
2021-04-25T09:54:00Z,00000200,01000000,0000.14,0000.32,-000.04,0000.43,-000.06,0000.27,-000.35,0000.06,-000.34,17.0,23.7,00.5,00.3,0680.7,31.0
2021-04-25T09:55:00Z,00000200,01000000,0000.11,0000.17,0000.14,0000.94,0000.07,0000.01,0000.41,-000.06,0000.14,17.0,23.7,00.5,00.3,0680.7,31.0
2021-04-25T09:56:00Z,00000200,01000000,0000.20,-000.15,0000.41,0000.07,-000.00,0000.13,-000.03,-000.22,-000.03,17.0,23.7,00.4,00.2,0680.7,31.0
2021-04-25T09:57:00Z,00000200,41000000,,,,,,,-000.01,0000.27,0000.34,17.0,23.7,00.3,00.2,0680.6,31.0
2021-04-25T09:58:00Z,00000200,61000000,,,,,,,-000.03,-000.35,-000.49,16.7,23.8,00.4,00.2,0679.8,31.0
2021-04-25T09:59:00Z,00000200,21000000,,,,,,,0000.06,0000.08,-000.22,16.7,23.9,00.3,00.2,0679.8,31.0
